Location: Marano Ticino
(45.6333°N, 8.6333°E)
Time: 01:48:23
(UTC+00:00)

Daily predictions for brighter satellites

Satellite Brightness Start Highest point End
(mag) Time Altitude Azimuth Time Altitude Azimuth Time Altitude Azimuth
CENTAUR R/B 4.3 02:14:21 38° E 02:14:21 38° E 02:20:03 10° ESE
Lacrosse 5 4.4 02:52:48 17° E 02:52:48 17° E 02:54:29 10° ENE
Cosmos 2263 Rocket 4.0 03:01:26 27° NE 03:01:26 27° NE 03:04:15 10° NE
SJ 16-02 4.2 03:08:47 15° ENE 03:08:47 15° ENE 03:10:03 10° NE
CZ-4C R/B 4.1 03:25:49 18° SE 03:27:52 23° ESE 03:32:10 10° ENE
BREEZE-M DEB (TANK) 4.5 03:30:33 72° NNW 03:30:52 73° N 03:35:13 10° E
ATLAS 3B R/B 3.7 03:30:34 35° N 03:32:28 41° NE 03:39:09 10° ESE
Cosmos 1943 4.0 03:36:00 45° SE 03:36:00 45° SE 03:39:54 10° SSE
Lacrosse 4 Rocket 3.5 03:38:11 26° ESE 03:38:11 26° ESE 03:40:15 10° SE
Cosmos 923 Rocket 4.5 03:53:38 51° NNE 03:54:28 58° ENE 03:59:42 10° SE
ALOS 3.2 03:49:58 10° NNE 03:53:16 43° NE 03:53:16 43° NE
NOSS 3-2 (C) 4.0 04:00:08 57° WSW 04:00:44 58° WSW 04:09:05 10° SSE
NOSS 3-4 (A) 3.2 04:00:50 75° SW 04:01:23 89° NW 04:07:43 10° NE
NOSS 3-4 (C) 3.2 04:00:54 74° SW 04:01:31 90° NW 04:07:52 10° NE
CENTAUR R/B 3.2 04:01:35 54° W 04:02:44 58° WSW 04:11:21 10° SSE
Milstar 3 Cent rocket 4.5 04:00:16 18° SSW 04:03:46 25° SSE 04:12:55 10° ESE
ARGOS Delta rocket 4.2 04:00:32 10° N 04:04:43 59° NNE 04:04:43 59° NNE
Cosmos 158 Rocket 3.9 04:10:38 66° N 04:11:14 77° ENE 04:16:13 10° SSE
SL-4 R/B 3.5 04:15:02 28° NNE 04:15:02 28° NNE 04:17:15 10° ENE
Cosmos 1151 Rocket 3.5 04:17:01 50° S 04:17:01 50° S 04:20:14 10° S
SKYMED 2 4.2 04:12:56 10° SSE 04:17:09 54° ENE 04:19:24 26° N
Cosmos 1844 Rocket 4.0 04:12:10 10° S 04:17:21 39° ESE 04:22:36 10° NE
Cosmos 1782 3.4 04:16:34 46° NE 04:17:22 56° ENE 04:21:20 10° SSE
ATLAS 2AS CENTAUR R/B 2.9 04:15:30 23° SW 04:21:00 86° NW 04:28:55 10° NE
ERS-2 4.0 04:17:53 10° SSE 04:19:17 22° S 04:19:17 22° S
Cosmos 1680 Rocket 3.6 04:20:02 33° NNW 04:22:29 76° ENE 04:27:47 10° SSE
ATLAS 5 CENTAUR R/B 3.8 04:31:18 17° N 04:31:18 17° N 04:32:05 10° NNE
Atlas Centaur 2 4.2 04:26:40 13° SSW 04:29:43 18° S 04:33:29 10° SE
RESURS DK-1 3.1 04:27:27 10° S 04:31:30 54° ESE 04:35:34 10° NE
CRYOSAT 2 4.3 04:27:20 10° S 04:32:12 88° E 04:37:06 10° N
ATLAS CENTAUR R/B 2.0 04:32:06 39° NNE 04:32:54 46° NE 04:36:40 10° SE
Lacrosse 5 1.7 04:32:02 54° WSW 04:33:09 77° NW 04:38:15 10° NE
ADEOS 3.4 04:29:13 10° N 04:34:25 68° WNW 04:39:35 10° SSW
Cosmos 1328 Rocket 3.4 04:35:39 63° WNW 04:35:56 65° W 04:40:19 10° S
Meteor PRIRODA 4.5 04:32:53 10° NNE 04:36:33 51° E 04:40:12 10° S
H-2A R/B 4.4 04:36:48 10° NNE 04:40:26 35° E 04:44:00 10° SSE
Cosmos 2112 Rocket 4.0 04:38:53 24° NNW 04:42:15 87° WSW 04:47:36 10° SSE
Cosmos 2263 Rocket 2.8 04:43:11 34° NW 04:43:11 34° NW 04:48:08 10° NNE
Gbstr 26 Del rocket 2.4 04:43:34 71° W 04:43:55 83° SSW 04:47:51 10° ESE
Meteor 1-4 Rocket 4.4 04:46:47 18° SSW 04:46:47 18° SSW 04:47:51 10° SSW
SJ 16-02 1.8 04:45:52 40° NW 04:45:52 40° NW 04:49:23 10° N
Cosmos 1898 Rocket 3.5 04:47:15 10° SSW 04:52:35 88° WNW 04:57:57 10° NNE
Meteor 1-26 Rocket 4.4 04:48:59 15° NNW 04:53:33 50° W 04:58:55 10° SSW
FALCON 9 DEB 2.8 04:56:36 65° NW 04:56:43 66° NNW 04:59:56 10° NE
FALCON 9 DEB 2.9 04:56:45 62° NW 04:56:50 63° NNW 05:00:03 10° NE
FENGYUN 3A 4.1 04:54:12 10° N 04:59:10 38° WNW 05:04:06 10° SW
Envisat 4.2 04:54:49 10° NNE 04:59:40 44° E 05:04:30 10° S
Cosmos 1743 Rocket 3.6 04:55:32 10° S 04:59:58 81° E 05:04:28 10° N
Cosmos 1408 Rocket 3.7 04:57:40 10° SSW 05:02:00 51° WNW 05:06:22 10° N
H-2A R/B 4.1 04:59:33 10° NNE 05:03:04 33° E 05:06:32 10° SSE
NOSS 7 (H) 4.2 05:01:45 14° SW 05:04:36 83° SE 05:07:34 10° NE
Cosmos 2181 Rocket 4.3 04:58:49 10° NNW 05:04:37 43° W 05:10:20 10° SSW
COSMO-SKYMED 1 2.8 05:01:02 10° S 05:05:13 47° W 05:07:59 20° NNW
USA 307 4.3 05:05:08 22° NNW 05:06:51 28° N 05:10:38 10° ENE
Cosmos 1937 Rocket 3.4 05:04:30 10° SSW 05:09:39 86° WNW 05:14:53 10° NNE
USA 308 4.2 05:11:14 20° NNW 05:13:15 29° N 05:17:02 10° ENE
Meteor 2-3 Rocket 4.3 05:09:01 10° SW 05:14:13 35° WNW 05:19:31 10° N
Lacrosse 4 Rocket 3.0 05:14:32 19° WSW 05:14:32 19° WSW 05:17:25 10° SSW
Cosmos 1833 Rocket 4.4 05:10:01 10° N 05:14:53 29° NE 05:19:44 10° ESE
MOS 1 Rocket 3.4 05:10:45 10° SSE 05:15:33 88° ENE 05:20:43 10° NNW
CZ-4C R/B 2.1 05:11:06 12° SW 05:15:43 58° NW 05:21:42 10° NE
Cosmos 2154 Rocket 4.1 05:09:33 10° S 05:15:46 84° E 05:22:05 10° N
CZ-4B R/B 3.3 05:13:34 10° N 05:17:55 50° WNW 05:22:10 10° SW
Cosmos 1689 Rocket 2.8 05:15:40 10° SSW 05:18:12 31° WSW 05:18:12 31° WSW
Meteor 1-27 Rocket 4.3 05:13:25 10° N 05:19:09 62° ENE 05:24:58 10° SSE
Cosmos 1805 Rocket 4.1 05:14:47 10° S 05:19:09 64° E 05:23:36 10° NNE
FALCON 9 DEB 3.3 05:18:33 32° WNW 05:19:37 46° NNW 05:22:45 10° NE
Meteor 1-10 Rocket 4.1 05:15:36 10° NNW 05:21:11 81° W 05:26:47 10° S
ATLAS 3B R/B 2.9 05:17:52 16° NW 05:23:24 56° WSW 05:30:25 10° SSE
Aureole 2 Rocket 1.5 05:21:05 10° SSW 05:23:36 84° ESE 05:26:10 10° NNE
COSMOS 2406 4.4 05:19:43 10° NNW 05:25:09 41° NE 05:30:34 10° SE
Cosmos 1862 3.3 05:22:45 10° SSW 05:26:45 59° WNW 05:30:47 10° N
Genesis I 3.4 05:24:54 11° WSW 05:28:25 45° NW 05:32:08 10° NNE
YAOGAN 6 2.6 05:25:11 10° NNE 05:28:42 79° E 05:32:10 10° S
ALOS 3.6 05:28:31 10° NNW 05:31:33 17° WNW 05:31:45 17° WNW
Cosmos 2278 Rocket 4.3 05:27:59 10° SSE 05:32:51 31° ESE 05:37:45 10° NE
Cosmos 2327 Rocket 4.4 05:29:10 10° SSW 05:35:14 69° W 05:41:19 10° N
Cosmos 2074 Rocket 4.2 05:30:50 10° SSW 05:36:44 45° WNW 05:42:41 10° N
PSLV R/B 3.7 05:33:41 10° N 05:37:31 63° WNW 05:41:15 10° SSW
USA 305 4.0 05:38:55 13° NW 05:42:17 34° NNE 05:46:13 10° E
BREEZE M DEB (TANK) 2.9 05:34:51 10° WSW 05:42:20 67° SSE 05:45:02 10° ENE
Cosmos 405 Rocket 3.0 05:39:08 10° SSW 05:42:38 41° WNW 05:46:13 10° N
SL-24 DEB 4.3 05:37:59 10° S 05:42:44 75° W 05:47:33 10° N
EO 1 Delta rocket 4.4 05:41:49 10° SSW 05:46:34 39° W 05:50:55 10° NNW
Cosmos 1812 3.4 05:44:00 10° NNW 05:47:30 34° W 05:50:59 10° SSW
Cosmos 1295 Rocket 4.4 05:42:08 10° SSW 05:48:11 69° W 05:54:16 10° N
Cosmos 2228 Rocket 3.6 05:45:56 10° NNW 05:50:02 38° W 05:54:05 10° SSW
USA 306 3.9 05:47:01 11° NW 05:50:46 36° NNE 05:54:45 10° E
Cosmos 1633 Rocket 3.9 05:48:24 10° S 05:52:44 57° E 05:57:05 10° NNE
NOSS 3-4 (A) 4.5 05:48:19 11° W 05:53:10 26° NNW 05:58:34 10° NNE
NOSS 3-4 (C) 4.5 05:48:23 11° W 05:53:17 26° NNW 05:58:42 10° NNE
SL-4 R/B 2.7 05:50:37 12° WNW 05:53:54 36° N 05:57:16 10° ENE
USA 234 3.5 05:51:31 10° NE 05:58:05 80° SE 06:04:38 10° SW
Cosmos 1356 3.3 05:54:51 10° S 05:58:16 88° W 06:01:42 10° N
FALCON 9 DEB 4.1 05:56:58 11° WNW 05:59:39 28° NNW 06:02:30 10° NE
Cosmos 1844 Rocket 3.2 05:56:05 10° WSW 06:01:16 36° NW 06:06:31 10° NNE
FALCON 9 DEB 4.2 06:00:01 10° NW 06:03:15 35° NNE 06:06:28 10° E
Cosmos 1707 Rocket 3.5 06:02:51 10° NNW 06:07:10 65° W 06:11:26 10° S
EXPRESS MD2 4.3 06:03:45 10° WNW 06:07:52 89° SSW 06:16:33 10° ESE
MOS 1-B 4.4 06:03:01 10° N 06:08:44 61° WNW 06:14:26 10° SSW
COSMOS 2455 2.9 06:03:23 10° SW 06:09:22 66° NW 06:15:24 10° NNE
RESURS DK-1 3.8 06:06:53 10° W 06:09:51 19° NW 06:12:51 10° N
BREEZE-M (TANK) 3.5 06:04:22 10° SW 06:11:00 50° SSE 06:13:29 10° ENE
ATLAS CENTAUR R/B 2.9 06:08:50 10° WNW 06:11:29 18° WSW 06:14:12 10° SSW
NOAA 6 4.3 06:06:57 10° N 06:11:52 48° WNW 06:16:45 10° SW
BREEZE-M DEB 4.2 06:04:10 10° WNW 06:11:57 36° SW 06:14:49 10° SSE
ATLAS 2AS CENTAUR R/B 3.8 06:06:06 10° W 06:13:03 32° NNW 06:19:51 10° NNE
H-2A R/B 4.1 06:11:29 10° NNW 06:14:22 20° WNW 06:17:13 10° WSW
Cosmos 1844 4.3 06:10:09 10° WSW 06:15:12 35° NW 06:20:19 10° NNE
Meteor 1-25 Rocket 4.5 06:11:13 10° S 06:16:46 76° E 06:22:20 10° NNE
Lacrosse 5 2.9 06:12:26 10° WNW 06:16:48 28° NNW 06:21:10 10° NE
